Regional Weather Roundup
Issued by NWS Northern Indiana

Home | Current Version | Previous Version | Text Only | Print | Product List | Glossary On
Versions: 1 2 3 4 5 6 7 8 9 10 11 12 13 14 15 16 17 18 19 20 21 22 23 24 25 26 27 28 29 30 31 32 33 34 35 36 37 38 39 40 41 42 43 44 45 46 47 48 49 50
000
ASUS43 KIWX 270110
RWRIWX

KIWX WEATHER ROUNDUP
NATIONAL WEATHER SERVICE NORTHERN INDIANA
800 PM EST MON JAN 26 2015

NOTE: "FAIR" INDICATES FEW OR NO CLOUDS BELOW 12,000 FEET WITH NO
SIGNIFICANT WEATHER AND/OR OBSTRUCTIONS TO VISIBILITY.

* THESE STATIONS ARE NOT UNDER NWS QUALITY CONTROL. THEY ALSO MAY NOT
  REPORT WEATHER SUCH AS PRECIPITATION OR FOG.

INZ001>027-270200-
NORTHERN INDIANA

CITY           SKY/WX    TMP DP  RH WIND       PRES   REMARKS
GARY*          FLURRIES  28  19  69 S5        29.92R WCI  23
VALPARAISO     LGT SNOW  23  18  81 SE5       29.92R WCI  17
MICHIGAN CITY* CLOUDY    25  14  63 S3        29.94R
LAPORTE*       CLOUDY    25  16  68 S3        29.94R
KNOX*          CLOUDY    24   6  46 S5        29.93R WCI  18
SOUTH BEND     CLOUDY    24  14  65 S6        29.93R WCI  17
ELKHART*       CLOUDY    23   7  50 CALM      29.94R
GOSHEN         CLOUDY    22  12  65 CALM      29.93R
MONTICELLO*    CLOUDY    23  18  81 SE3       29.92S
LOGANSPORT*    CLOUDY    21  16  79 SE5       29.94R WCI  15
ROCHESTER*     CLOUDY    25  19  80 CALM      29.94R
WARSAW*        CLOUDY    23  14  68 CALM      29.92R
ANGOLA*        CLOUDY    16   9  73 CALM      29.91R
FORT WAYNE     MOCLDY    17  11  77 S3        29.94R
HUNTINGTON*    CLOUDY    19   8  60 CALM      29.94R
PERU/GRISSOM   CLOUDY    19  13  77 SE1       29.93R
MARION*        CLOUDY    21  14  73 CALM      29.94R

$$
INZ028>050-270200-
CENTRAL INDIANA

CITY           SKY/WX    TMP DP  RH WIND       PRES   REMARKS
LAFAYETTE      CLOUDY    27  22  81 CALM      29.93R
KOKOMO*        CLOUDY    19  14  79 CALM      29.93R
MUNCIE*        CLOUDY    21  14  74 S3        29.92R
INDIANAPOLIS   CLOUDY    25  21  85 S5        29.92R WCI  19

$$
MIZ043>046-050>051-056>058-064>065-071>073-077>080-270200-
SOUTHWEST LOWER MICHIGAN

CITY           SKY/WX    TMP DP  RH WIND       PRES   REMARKS
BATTLE CREEK   MOCLDY    23   8  52 CALM      29.93R
BENTON HARBOR  CLOUDY    23  14  68 CALM      29.94R
COLDWATER*     CLOUDY    18   8  62 CALM      29.93R
HILLSDALE*     PTCLDY    16   6  62 CALM      29.90R
HOLLAND        MOCLDY    24   9  52 E6        29.95R WCI  17
GRAND RAPIDS   CLOUDY    20   8  60 E7        29.95R WCI  11
KALAMAZOO      CLOUDY    23   3  42 CALM      29.94R
STURGIS*       CLOUDY    18   7  62 CALM      29.92R
THREE RIVERS*  CLOUDY    21  13  72 CALM      29.94R

$$
OHZ001>008-015>018-024>025-270200-
NORTHWEST OHIO

CITY           SKY/WX    TMP DP  RH WIND       PRES   REMARKS
WAUSEON*       FAIR      16  10  79 CALM      29.93R
DEFIANCE       FAIR      14   7  73 CALM      29.94R
FINDLAY        PTCLDY     9   6  88 CALM      29.93S
TOLEDO EXPRESS CLEAR     16   9  74 SE3       29.94R
TOLEDO METCALF PTCLDY    15   8  73 CALM      29.96S
LIMA           MOCLDY     9   5  84 SE3       29.92S

$$
AND FOR LAKE MICHIGAN COASTAL AND OPEN LAKE BUOY OBSERVATIONS

STATION/POSITION TEMP    WIND        PRES    VSBY  WAVE
                 AIR SEA DIR/SP/G                  HT/PER
                 (F)     (DEG/KT/KT) (MB)    (MI)  (FT/S)
CALUMET HARBOR    26     180/  4/  6   N/A
MICHIGAN CITY     24     140/  5/  7   N/A
SAINT JOSEPH      24     130/  1/  3 1014.2R

$$
&&


USA.gov is the U.S. government's official web portal to all federal, state and local government web resources and services.